Back to catalog

STARLINK-37718

AliveCommunicationsVLEO
NORAD 69242·PAYLOAD·🇺🇸 United States

Launched May 29, 2026 from Cape Canaveral Space Force Station

Loading…

Next Passes (next 24 hours)

TLE

FreshSource: CelesTrak SupGP

Epoch: Sep 14, 2026, 16:13 UTC

1 69242C 26117E   26257.67618056  .00073409  00000+0  21689-2 0  2578
2 69242  53.1565 180.9724 0001244 104.9507 227.0636 15.34353898    14

Track STARLINK-37718 in real time with AllMySat

Download on the App Store